TimeCDT,TemperatureF,Dew PointF,Humidity,Sea Level PressureIn,VisibilityMPH,Wind Direction,Wind SpeedMPH,Gust SpeedMPH,PrecipitationIn,Events,Conditions,WindDirDegrees,DateUTC
12:15 AM,55.4,53.6,94,30.14,3.0,Calm,Calm,-,N/A,,Clear,0,2012-09-30 05:15:00
12:55 AM,55.4,53.6,94,30.13,7.0,Calm,Calm,-,N/A,,Clear,0,2012-09-30 05:55:00
1:15 AM,55.4,53.6,94,30.13,5.0,Calm,Calm,-,N/A,,Clear,0,2012-09-30 06:15:00
1:35 AM,55.4,53.6,94,30.13,0.2,Calm,Calm,-,N/A,Fog,Fog,0,2012-09-30 06:35:00
1:55 AM,53.6,51.8,94,30.13,0.5,Calm,Calm,-,N/A,Fog,Fog,0,2012-09-30 06:55:00
2:15 AM,53.6,51.8,94,30.13,0.2,Calm,Calm,-,N/A,Fog,Fog,0,2012-09-30 07:15:00
2:35 AM,51.8,51.8,100,30.13,0.8,West,5.8,-,N/A,,Mist,270,2012-09-30 07:35:00
2:55 AM,51.8,50.0,94,30.13,0.5,SW,5.8,-,N/A,Fog,Fog,230,2012-09-30 07:55:00
3:15 AM,51.8,50.0,94,30.13,0.2,WSW,5.8,-,N/A,Fog,Fog,240,2012-09-30 08:15:00
3:35 AM,51.8,50.0,94,30.13,0.5,SW,5.8,-,N/A,Fog,Fog,230,2012-09-30 08:35:00
3:55 AM,51.8,50.0,94,30.13,3.0,WSW,6.9,-,N/A,,Scattered Clouds,240,2012-09-30 08:55:00
4:15 AM,51.8,51.8,100,30.12,4.0,SW,6.9,-,N/A,,Clear,230,2012-09-30 09:15:00
4:35 AM,53.6,51.8,94,30.12,4.0,West,3.5,-,N/A,,Clear,280,2012-09-30 09:35:00
4:55 AM,53.6,51.8,94,30.11,3.0,Calm,Calm,-,N/A,,Mostly Cloudy,0,2012-09-30 09:55:00
5:35 AM,53.6,51.8,94,30.10,4.0,Calm,Calm,-,N/A,,Overcast,0,2012-09-30 10:35:00
5:55 AM,53.6,51.8,94,30.10,4.0,Calm,Calm,-,N/A,,Mostly Cloudy,0,2012-09-30 10:55:00
6:35 AM,51.8,51.8,100,30.10,0.5,Calm,Calm,-,N/A,Fog,Fog,0,2012-09-30 11:35:00
6:55 AM,51.8,50.0,94,30.09,0.8,Calm,Calm,-,N/A,,Mostly Cloudy,0,2012-09-30 11:55:00
7:15 AM,51.8,50.0,94,30.09,2.0,Calm,Calm,-,N/A,,Scattered Clouds,0,2012-09-30 12:15:00
7:35 AM,51.8,50.0,94,30.09,1.2,Calm,Calm,-,N/A,,Scattered Clouds,0,2012-09-30 12:35:00
7:55 AM,51.8,50.0,94,30.10,1.8,Calm,Calm,-,N/A,,Scattered Clouds,0,2012-09-30 12:55:00
8:15 AM,51.8,50.0,94,30.10,0.8,Calm,Calm,-,N/A,,Mostly Cloudy,0,2012-09-30 13:15:00
8:35 AM,53.6,51.8,94,30.10,1.5,Calm,Calm,-,N/A,,Scattered Clouds,0,2012-09-30 13:35:00
8:55 AM,53.6,53.6,100,30.10,2.0,Calm,Calm,-,N/A,,Clear,0,2012-09-30 13:55:00
9:15 AM,55.4,53.6,94,30.11,4.0,WSW,3.5,-,N/A,,Clear,240,2012-09-30 14:15:00
9:55 AM,60.8,59.0,94,30.12,10.0,SSW,3.5,-,N/A,,Clear,210,2012-09-30 14:55:00
10:15 AM,62.6,57.2,82,30.12,10.0,WSW,5.8,-,N/A,,Clear,240,2012-09-30 15:15:00
10:35 AM,64.4,57.2,77,30.12,10.0,West,5.8,-,N/A,,Clear,260,2012-09-30 15:35:00
10:55 AM,64.4,57.2,77,30.12,10.0,West,4.6,-,N/A,,Clear,260,2012-09-30 15:55:00
11:15 AM,66.2,55.4,68,30.11,10.0,WSW,4.6,-,N/A,,Clear,240,2012-09-30 16:15:00
11:35 AM,68.0,55.4,64,30.11,10.0,WNW,4.6,-,N/A,,Clear,290,2012-09-30 16:35:00
11:55 AM,69.8,55.4,60,30.11,10.0,West,4.6,-,N/A,,Clear,260,2012-09-30 16:55:00
12:15 PM,69.8,55.4,60,30.10,10.0,WNW,3.5,-,N/A,,Clear,300,2012-09-30 17:15:00
12:35 PM,69.8,55.4,60,30.09,10.0,WNW,4.6,-,N/A,,Scattered Clouds,300,2012-09-30 17:35:00
12:55 PM,71.6,55.4,57,30.09,10.0,NNW,4.6,-,N/A,,Scattered Clouds,330,2012-09-30 17:55:00
1:15 PM,71.6,55.4,57,30.08,10.0,NNW,4.6,-,N/A,,Clear,340,2012-09-30 18:15:00
1:35 PM,71.6,55.4,57,30.08,10.0,Calm,Calm,-,N/A,,Clear,0,2012-09-30 18:35:00
1:55 PM,73.4,53.6,50,30.07,10.0,NNW,4.6,-,N/A,,Clear,330,2012-09-30 18:55:00
2:15 PM,73.4,53.6,50,30.05,10.0,Calm,Calm,-,N/A,,Clear,0,2012-09-30 19:15:00
2:35 PM,73.4,53.6,50,30.04,10.0,Calm,Calm,-,N/A,,Clear,0,2012-09-30 19:35:00
2:55 PM,75.2,53.6,47,30.03,10.0,NNE,3.5,-,N/A,,Clear,20,2012-09-30 19:55:00
3:35 PM,77.0,51.8,41,30.02,10.0,NE,3.5,-,N/A,,Clear,40,2012-09-30 20:35:00
3:55 PM,77.0,50.0,39,30.01,10.0,NNE,4.6,-,N/A,,Clear,20,2012-09-30 20:55:00
4:15 PM,77.0,50.0,39,30.00,10.0,North,6.9,-,N/A,,Clear,350,2012-09-30 21:15:00
4:35 PM,77.0,50.0,39,29.99,10.0,North,5.8,-,N/A,,Clear,10,2012-09-30 21:35:00
4:55 PM,77.0,48.2,36,30.00,10.0,NE,5.8,-,N/A,,Clear,40,2012-09-30 21:55:00
5:15 PM,75.2,50.0,41,30.03,10.0,NNE,10.4,-,N/A,Thunderstorm,Clear,30,2012-09-30 22:15:00
5:35 PM,71.6,46.4,41,30.05,10.0,NNE,27.6,36.8,N/A,Thunderstorm,Mostly Cloudy,20,2012-09-30 22:35:00
5:55 PM,60.8,50.0,68,30.09,7.0,North,18.4,26.5,0.01,Rain-Thunderstorm,Thunderstorms and Rain,360,2012-09-30 22:55:00
6:15 PM,59.0,51.8,77,30.10,10.0,NNW,6.9,16.1,N/A,Rain-Thunderstorm,Light Thunderstorms and Rain,330,2012-09-30 23:15:00
6:35 PM,60.8,51.8,72,30.05,10.0,SSE,8.1,-,N/A,Rain,Light Rain,160,2012-09-30 23:35:00
6:55 PM,60.8,51.8,72,30.02,10.0,SSW,11.5,-,N/A,,Mostly Cloudy,200,2012-09-30 23:55:00
7:15 PM,60.8,51.8,72,30.04,10.0,SW,6.9,-,N/A,,Scattered Clouds,230,2012-10-01 00:15:00
7:35 PM,60.8,53.6,77,30.04,10.0,SW,4.6,-,N/A,,Clear,230,2012-10-01 00:35:00
7:55 PM,60.8,51.8,72,30.03,10.0,WSW,6.9,-,N/A,,Clear,250,2012-10-01 00:55:00
8:15 PM,60.8,50.0,68,30.03,10.0,WSW,8.1,-,N/A,,Clear,250,2012-10-01 01:15:00
8:35 PM,60.8,51.8,72,30.04,10.0,West,8.1,-,N/A,,Scattered Clouds,260,2012-10-01 01:35:00
8:55 PM,59.0,51.8,77,30.03,10.0,West,8.1,-,N/A,,Clear,270,2012-10-01 01:55:00
9:15 PM,59.0,51.8,77,30.03,10.0,West,8.1,-,N/A,,Clear,270,2012-10-01 02:15:00
9:35 PM,57.2,51.8,82,30.02,10.0,West,6.9,-,N/A,,Clear,270,2012-10-01 02:35:00
9:55 PM,55.4,51.8,88,30.03,10.0,NW,4.6,-,N/A,,Clear,320,2012-10-01 02:55:00
10:15 PM,55.4,51.8,88,30.04,10.0,NW,3.5,-,N/A,,Clear,320,2012-10-01 03:15:00
10:35 PM,55.4,51.8,88,30.05,10.0,NW,5.8,-,N/A,,Clear,310,2012-10-01 03:35:00
11:15 PM,57.2,51.8,82,30.09,10.0,NE,19.6,25.3,N/A,,Mostly Cloudy,40,2012-10-01 04:15:00
11:35 PM,59.0,51.8,77,30.11,10.0,ENE,11.5,21.9,N/A,,Scattered Clouds,70,2012-10-01 04:35:00
11:55 PM,57.2,50.0,77,30.10,10.0,East,10.4,16.1,N/A,Thunderstorm,Scattered Clouds,90,2012-10-01 04:55:00